Content
SEND FEEDBACK

Daily
Averages
Monthly
Summary
United States of America

FORT LEE, NEW JERSEY


Home > North America > United States > New Jersey
Elevation: 128 feet     Latitude: 40 46N     Longitude: 073 58W

WEATHER
 
SELECT A DAY
Number of Records: 147,926;   Date Range: 11/1/95 - 7/7/14
 
SHARE

PRINT THIS DATA

[ ← Previous Day ]
WEATHER ALMANAC - NOVEMBER 9, 2013
[ Next Day → ]
[ °C ]   °F
Weather ElementAverageHighLow
Temperature44.9 °F50 °F (2:51 pm)37.9 °F (6:51 am)
Dewpoint25.8 °F33.1 °F (11:51 pm)21.9 °F (12:51 pm)
Humidity48 %60 % (4:51 am)33 % (2:51 pm)
Barometer30.18 in30.29 in (7:51 am)30.00 in (11:51 pm)
Wind Speed5.1 mph9.2 mph (1:51 am)
Wind Gust20.7 mph (9:51 pm)
Weather ElementAverage
Visibility10 mi
Wind DirectionESE (123 °)

Weather ElementTotal
Precipitation---
Heating Degree Days21.1 (Base 65)
Averaged from 23 records on November 9, 2013
WEATHER CONDITIONS BREAKOUT
WIND DIRECTION BREAKOUT
WEATHER BY HOUR - NOVEMBER 9, 2013
[ °C ]   °F
Local TimeTemperatureDewpointHumidityBarometerVisibilityWind DirectionWind SpeedGust SpeedPrecipitationEventsConditions
1:51 AM41.0 °F24.1 °F51 %30.24 in10.0 miWNW (290°)9.2 mph17.3 mphClear
2:51 AM39.9 °F25.0 °F55 %30.25 in10.0 miWest (270°)6.9 mphClear
3:51 AM39.9 °F25.0 °F55 %30.25 in10.0 miWest (270°)6.9 mphClear
4:51 AM39.0 °F26.1 °F60 %30.26 in10.0 miVariable4.6 mphClear
5:51 AM39.0 °F26.1 °F60 %30.27 in10.0 miVariable5.8 mphScattered Clouds
6:51 AM37.9 °F25.0 °F60 %30.28 in10.0 miWest (280°)6.9 mphClear
7:51 AM39.0 °F26.1 °F60 %30.29 in10.0 miVariable4.6 mphClear
8:51 AM41.0 °F26.1 °F55 %30.28 in10.0 miWNW (290°)5.8 mphClear
9:51 AM43.0 °F26.1 °F51 %30.29 in10.0 miWest (270°)5.8 mphClear
10:51 AM45.0 °F25.0 °F46 %30.27 in10.0 miVariable4.6 mphClear
11:51 AM46.0 °F24.1 °F42 %30.24 in10.0 miSSW (210°)3.5 mphClear
12:51 PM48.0 °F21.9 °F36 %30.21 in10.0 miWSW (240°)5.8 mphClear
1:51 PM48.9 °F21.9 °F35 %30.18 in10.0 miVariable3.5 mphClear
2:51 PM50.0 °F21.9 °F33 %30.15 in10.0 miCalmClear
3:51 PM48.9 °F23.0 °F36 %30.13 in10.0 miCalmClear
4:51 PM48.0 °F25.0 °F41 %30.12 in10.0 miNorthClear
5:51 PM48.0 °F25.0 °F41 %30.11 in10.0 miCalmClear
6:51 PM48.0 °F25.0 °F41 %30.11 in10.0 miVariable5.8 mphClear
7:51 PM48.9 °F26.1 °F41 %30.10 in10.0 miVariable5.8 mph17.3 mphOvercast
8:51 PM48.0 °F28.9 °F48 %30.09 in10.0 miSW (230°)3.5 mphMostly Cloudy
9:51 PM48.9 °F30.0 °F48 %30.07 in10.0 miWSW (240°)9.2 mph20.7 mphOvercast
10:51 PM46.9 °F32.0 °F56 %30.03 in10.0 miVariable5.8 mphClear
11:51 PM48.9 °F33.1 °F54 %30.00 in10.0 miWSW (240°)8.1 mphOvercast
Hourly data recorded from KNYC, located miles away from Fort Lee, New Jersey







STORIES FROM OUR PARTNERS